Location: Unspecified
(0.0000°N, 0.0000°E)
Time: 22:19:38
(UTC+00:00)

Transit 4A - Pass Details

Date: 22 December 2018
Orbit: 868 x 977 km, 66.8° (Epoch: 19 January)

Event Time Altitude Azimuth Distance (km) Brightness Sun altitude
Rises 23:36:22 0° 189° (S) 3,497 - -65.9°
Reaches altitude 10° 23:38:59 10° 183° (S) 2,542 - -66.1°
Maximum altitude 23:44:36 47° 110° (ESE) 1,138 - -66.3°
Drops below altitude 10° 23:50:06 10° 37° (NE) 2,501 - -66.5°
Sets 23:52:38 0° 31° (NNE) 3,435 - -66.5°
